LAN804 YMML-SCEL

Flight info

Callsign LAN804
Flight time N/A
Altitude 41000
Route SUNTI H169 IRSOM V33 TASUM DCT 48S154E/N0482F370 53S163E 56S169E DCT 60S80 DCT 63S168W 65S154W/N0489F390 65S131W 64S122W 62S112W 59S102W 56S095W/N0487F410 53S090W/N0479F400 47S082W 42S077W DCT PANEX DCT LODOS UQ808 EROLO EROLO7F
Aircraft B788/H-SDE1E2E3FGHIJ2J3J4J5M1RWXY/LB1D1

Departure

Time N/A
Airport Melbourne Airport (YMML)

Arrival

Time 2026-05-05 01:34
Airport Comodoro Arturo Merino Benítez International Airport (SCEL)
Time Latitude Longitude Altitude Speed Heading
2026-05-05 00:34 -38.63088 -73.84348 39499 ft 485 kts 24°
2026-05-05 00:34 -38.60309 -73.81901 39760 ft 485 kts 24°
2026-05-05 00:34 -38.57526 -73.79454 39975 ft 485 kts 24°
2026-05-05 00:35 -38.54745 -73.77010 40217 ft 485 kts 24°
2026-05-05 00:35 -38.51967 -73.74570 40455 ft 485 kts 25°
2026-05-05 00:35 -38.49182 -73.72129 40644 ft 485 kts 25°
2026-05-05 00:35 -38.46401 -73.69692 40847 ft 485 kts 25°
2026-05-05 00:36 -38.43618 -73.67255 40967 ft 486 kts 25°
2026-05-05 00:36 -38.38022 -73.62366 40992 ft 488 kts 25°
2026-05-05 00:37 -38.32436 -73.57489 41000 ft 486 kts 25°
2026-05-05 00:37 -38.26855 -73.52628 41005 ft 486 kts 25°
2026-05-05 00:38 -38.21265 -73.47770 40995 ft 486 kts 25°
2026-05-05 00:38 -38.15679 -73.42924 41005 ft 486 kts 25°
2026-05-05 00:39 -38.10085 -73.38082 41006 ft 487 kts 25°
2026-05-05 00:39 -38.04475 -73.33235 40999 ft 488 kts 25°
2026-05-05 00:40 -37.98865 -73.28394 41012 ft 487 kts 25°
2026-05-05 00:40 -37.93261 -73.23570 41008 ft 488 kts 25°
2026-05-05 00:41 -37.87641 -73.18741 41009 ft 488 kts 25°
2026-05-05 00:41 -37.82017 -73.13916 41019 ft 488 kts 25°
2026-05-05 00:42 -37.76291 -73.09372 41006 ft 480 kts 18°
2026-05-05 00:42 -37.70271 -73.05843 41021 ft 476 kts 14°
2026-05-05 00:43 -37.64195 -73.02566 41007 ft 474 kts 14°
2026-05-05 00:43 -37.58108 -72.99307 41023 ft 476 kts 14°
2026-05-05 00:44 -37.52047 -72.96056 41021 ft 476 kts 14°
2026-05-05 00:44 -37.45917 -72.92766 41015 ft 476 kts 14°
2026-05-05 00:45 -37.39859 -72.89522 41029 ft 477 kts 14°
2026-05-05 00:45 -37.33739 -72.86250 41018 ft 478 kts 14°
2026-05-05 00:46 -37.27629 -72.82987 41018 ft 477 kts 14°
2026-05-05 00:46 -37.21573 -72.79758 41028 ft 477 kts 14°
2026-05-05 00:47 -37.15404 -72.76476 41015 ft 477 kts 14°
2026-05-05 00:47 -37.09296 -72.73233 41022 ft 477 kts 14°
2026-05-05 00:48 -37.03171 -72.69988 41026 ft 479 kts 14°
2026-05-05 00:48 -36.97029 -72.66739 41013 ft 480 kts 14°
2026-05-05 00:49 -36.90884 -72.63492 41023 ft 479 kts 14°
2026-05-05 00:49 -36.84739 -72.60252 41018 ft 479 kts 14°
2026-05-05 00:50 -36.78591 -72.57016 41010 ft 480 kts 14°
2026-05-05 00:50 -36.72423 -72.53776 41022 ft 481 kts 14°
2026-05-05 00:51 -36.66254 -72.50540 41008 ft 482 kts 14°
2026-05-05 00:51 -36.60108 -72.47322 41007 ft 482 kts 14°
2026-05-05 00:52 -36.53932 -72.44093 41011 ft 482 kts 14°
2026-05-05 00:52 -36.47754 -72.40871 40996 ft 483 kts 14°
2026-05-05 00:53 -36.41549 -72.37639 41004 ft 483 kts 14°
2026-05-05 00:53 -36.35341 -72.34412 41002 ft 485 kts 14°
2026-05-05 00:54 -36.29123 -72.31184 40993 ft 484 kts 14°
2026-05-05 00:54 -36.22909 -72.27963 41006 ft 484 kts 14°
2026-05-05 00:55 -36.16694 -72.24749 40999 ft 484 kts 14°
2026-05-05 00:55 -36.10478 -72.21538 40996 ft 484 kts 14°
2026-05-05 00:56 -36.04261 -72.18278 41010 ft 487 kts 15°
2026-05-05 00:56 -35.98072 -72.14826 40994 ft 488 kts 16°
2026-05-05 00:57 -35.91908 -72.11336 41002 ft 487 kts 16°
2026-05-05 00:57 -35.85740 -72.07845 41005 ft 488 kts 16°
2026-05-05 00:58 -35.79569 -72.04360 40994 ft 488 kts 16°
2026-05-05 00:58 -35.74441 -72.01470 41004 ft 488 kts 16°
2026-05-05 00:59 -35.67264 -71.97433 40993 ft 488 kts 16°
2026-05-05 00:59 -35.62095 -71.94529 40985 ft 488 kts 16°
2026-05-05 01:00 -35.54906 -71.90499 41000 ft 490 kts 16°
2026-05-05 01:00 -35.49712 -71.87592 40990 ft 490 kts 16°
2026-05-05 01:01 -35.43560 -71.84152 40982 ft 489 kts 16°
2026-05-05 01:01 -35.37367 -71.80697 40995 ft 489 kts 16°
2026-05-05 01:02 -35.31168 -71.77245 40989 ft 490 kts 16°
2026-05-05 01:02 -35.24951 -71.73789 40986 ft 491 kts 16°
2026-05-05 01:03 -35.18735 -71.70338 40998 ft 491 kts 16°
2026-05-05 01:03 -35.12514 -71.66891 40987 ft 491 kts 16°
2026-05-05 01:04 -35.06296 -71.63450 40992 ft 491 kts 16°
2026-05-05 01:04 -34.96968 -71.58302 41022 ft 491 kts 16°
2026-05-05 01:05 -34.90741 -71.54872 41027 ft 491 kts 17°
2026-05-05 01:05 -34.84514 -71.51447 41016 ft 491 kts 16°
2026-05-05 01:06 -34.78286 -71.48027 41028 ft 491 kts 16°
2026-05-05 01:06 -34.72057 -71.44613 41024 ft 491 kts 16°
2026-05-05 01:07 -34.65825 -71.41211 40955 ft 490 kts 16°
2026-05-05 01:07 -34.62681 -71.39589 40366 ft 491 kts 14°
2026-05-05 01:07 -34.59528 -71.38022 39739 ft 489 kts 14°
2026-05-05 01:08 -34.56382 -71.36476 39145 ft 486 kts 14°
2026-05-05 01:08 -34.53255 -71.34945 38573 ft 483 kts 14°
2026-05-05 01:08 -34.50146 -71.33421 38008 ft 480 kts 14°
2026-05-05 01:08 -34.47059 -71.31907 37451 ft 477 kts 14°
2026-05-05 01:09 -34.43994 -71.30402 36900 ft 474 kts 14°
2026-05-05 01:09 -34.40986 -71.28926 36360 ft 470 kts 15°
2026-05-05 01:09 -34.37960 -71.27442 35817 ft 468 kts 15°
2026-05-05 01:09 -34.34931 -71.25960 35278 ft 471 kts 15°
2026-05-05 01:10 -34.31872 -71.24469 34736 ft 478 kts 15°
2026-05-05 01:10 -34.28774 -71.22956 34181 ft 481 kts 15°
2026-05-05 01:10 -34.25668 -71.21437 33621 ft 482 kts 15°
2026-05-05 01:10 -34.22565 -71.19918 33060 ft 482 kts 15°
2026-05-05 01:11 -34.19449 -71.18395 32500 ft 484 kts 15°
2026-05-05 01:11 -34.16323 -71.16869 31939 ft 486 kts 15°
2026-05-05 01:11 -34.13186 -71.15340 31376 ft 485 kts 15°
2026-05-05 01:11 -34.10068 -71.13818 30815 ft 482 kts 15°
2026-05-05 01:12 -34.06972 -71.12308 30259 ft 477 kts 15°
2026-05-05 01:12 -34.03904 -71.10813 29710 ft 473 kts 15°
2026-05-05 01:12 -34.00851 -71.09403 29159 ft 464 kts 11°
2026-05-05 01:12 -33.97745 -71.08625 28623 ft 449 kts
2026-05-05 01:13 -33.94665 -71.08267 28130 ft 442 kts 356°
2026-05-05 01:13 -33.91609 -71.08040 27597 ft 438 kts 355°
2026-05-05 01:13 -33.88579 -71.07923 27063 ft 434 kts 354°
2026-05-05 01:13 -33.85564 -71.07888 26529 ft 431 kts 353°
2026-05-05 01:14 -33.82572 -71.07903 25997 ft 429 kts 352°
2026-05-05 01:14 -33.79600 -71.07943 25467 ft 426 kts 352°
2026-05-05 01:14 -33.76649 -71.07994 24940 ft 422 kts 352°
2026-05-05 01:14 -33.73723 -71.08050 24416 ft 418 kts 352°
2026-05-05 01:15 -33.70821 -71.08108 23898 ft 416 kts 352°
2026-05-05 01:15 -33.67942 -71.08168 23383 ft 412 kts 352°
2026-05-05 01:15 -33.65085 -71.08227 22871 ft 409 kts 352°
2026-05-05 01:15 -33.62254 -71.08286 22364 ft 405 kts 352°
2026-05-05 01:16 -33.59452 -71.08344 21861 ft 401 kts 352°
2026-05-05 01:16 -33.56679 -71.08401 21365 ft 397 kts 352°
2026-05-05 01:16 -33.53925 -71.08458 20871 ft 394 kts 353°
2026-05-05 01:16 -33.51196 -71.08515 20382 ft 391 kts 353°
2026-05-05 01:17 -33.48496 -71.08571 19898 ft 387 kts 353°
2026-05-05 01:17 -33.45803 -71.08627 19416 ft 384 kts 353°
2026-05-05 01:17 -33.43142 -71.08682 18938 ft 381 kts 353°
2026-05-05 01:17 -33.40502 -71.08736 18465 ft 377 kts 354°
2026-05-05 01:18 -33.37890 -71.08790 17996 ft 374 kts 354°
2026-05-05 01:18 -33.35338 -71.08842 17538 ft 370 kts 354°
2026-05-05 01:18 -33.32738 -71.08897 17065 ft 368 kts 354°
2026-05-05 01:18 -33.30199 -71.08949 16542 ft 361 kts 354°
2026-05-05 01:19 -33.27736 -71.08999 16215 ft 359 kts 354°
2026-05-05 01:19 -33.25209 -71.09054 15726 ft 367 kts 355°
2026-05-05 01:19 -33.22647 -71.09109 15230 ft 369 kts 355°
2026-05-05 01:19 -33.20074 -71.08976 14704 ft 371 kts
2026-05-05 01:20 -33.17529 -71.08532 14281 ft 367 kts
2026-05-05 01:20 -33.15036 -71.08018 13907 ft 361 kts
2026-05-05 01:20 -33.12581 -71.07493 13559 ft 356 kts
2026-05-05 01:20 -33.10151 -71.06970 13226 ft 353 kts
2026-05-05 01:21 -33.07763 -71.06455 12846 ft 342 kts
2026-05-05 01:21 -33.05497 -71.05963 12645 ft 321 kts
2026-05-05 01:21 -33.03365 -71.05502 12427 ft 303 kts
2026-05-05 01:21 -33.01347 -71.05067 12210 ft 287 kts
2026-05-05 01:22 -32.99424 -71.04654 11987 ft 274 kts
2026-05-05 01:22 -32.97577 -71.04258 11818 ft 268 kts
2026-05-05 01:22 -32.95728 -71.03865 11567 ft 271 kts
2026-05-05 01:22 -32.93868 -71.03469 11328 ft 272 kts
2026-05-05 01:23 -32.92002 -71.03070 11084 ft 272 kts
2026-05-05 01:23 -32.90140 -71.02661 10816 ft 272 kts
2026-05-05 01:23 -32.88410 -71.01681 10324 ft 284 kts 36°
2026-05-05 01:23 -32.87267 -70.99781 10067 ft 285 kts 66°
2026-05-05 01:24 -32.87027 -70.97478 9887 ft 281 kts 95°
2026-05-05 01:24 -32.87680 -70.95317 9735 ft 278 kts 117°
2026-05-05 01:24 -32.88575 -70.93247 9565 ft 287 kts 116°
2026-05-05 01:24 -32.89415 -70.91067 9341 ft 291 kts 113°
2026-05-05 01:25 -32.90188 -70.88834 9111 ft 291 kts 111°
2026-05-05 01:25 -32.90912 -70.86598 8886 ft 288 kts 110°
2026-05-05 01:25 -32.91853 -70.84529 8588 ft 286 kts 130°
2026-05-05 01:25 -32.93459 -70.83215 8386 ft 279 kts 159°
2026-05-05 01:26 -32.95351 -70.82840 8250 ft 274 kts 176°
2026-05-05 01:26 -32.97255 -70.82643 8092 ft 276 kts 175°
2026-05-05 01:26 -32.99171 -70.82420 7941 ft 277 kts 175°
2026-05-05 01:26 -33.01096 -70.82211 7795 ft 278 kts 176°
2026-05-05 01:27 -33.03021 -70.82060 7652 ft 277 kts 178°
2026-05-05 01:27 -33.04942 -70.81997 7529 ft 275 kts 180°
2026-05-05 01:27 -33.06853 -70.81979 7374 ft 273 kts 181°
2026-05-05 01:27 -33.08726 -70.81962 7091 ft 272 kts 180°
2026-05-05 01:28 -33.10600 -70.81908 6732 ft 270 kts 179°
2026-05-05 01:28 -33.12508 -70.81778 6300 ft 269 kts 176°
2026-05-05 01:28 -33.14342 -70.81612 5892 ft 258 kts 176°
2026-05-05 01:28 -33.16069 -70.81459 5598 ft 247 kts 177°
2026-05-05 01:29 -33.17729 -70.81351 5348 ft 230 kts 178°
2026-05-05 01:29 -33.19266 -70.81306 5075 ft 214 kts 180°
2026-05-05 01:29 -33.20703 -70.81279 4758 ft 200 kts 180°
2026-05-05 01:29 -33.22049 -70.81238 4490 ft 188 kts 179°
2026-05-05 01:30 -33.23332 -70.81158 4266 ft 182 kts 178°
2026-05-05 01:30 -33.24580 -70.81048 4051 ft 175 kts 177°
2026-05-05 01:30 -33.25763 -70.80953 3800 ft 166 kts 178°
2026-05-05 01:30 -33.26902 -70.80896 3581 ft 162 kts 180°
2026-05-05 01:31 -33.28011 -70.80873 3348 ft 155 kts 181°
2026-05-05 01:31 -33.29072 -70.80834 3140 ft 151 kts 180°
2026-05-05 01:31 -33.30113 -70.80773 2960 ft 149 kts 178°
2026-05-05 01:31 -33.31151 -70.80709 2759 ft 150 kts 178°
2026-05-05 01:32 -33.32192 -70.80646 2564 ft 150 kts 178°
2026-05-05 01:32 -33.33239 -70.80588 2365 ft 152 kts 178°
2026-05-05 01:32 -33.34298 -70.80530 2165 ft 153 kts 178°
2026-05-05 01:32 -33.35361 -70.80474 1956 ft 152 kts 178°
2026-05-05 01:33 -33.36417 -70.80419 1747 ft 151 kts 178°
2026-05-05 01:33 -33.37452 -70.80363 1585 ft 145 kts 178°
2026-05-05 01:33 -33.38274 -70.80318 1568 ft 74 kts 178°
2026-05-05 01:33 -33.38662 -70.80302 1568 ft 52 kts 178°
2026-05-05 01:34 -33.39007 -70.80281 1568 ft 46 kts 175°
2026-05-05 01:34 -33.39259 -70.80235 1568 ft 29 kts 159°
2026-05-05 01:34 -33.39410 -70.80140 1568 ft 18 kts 148°
2026-05-05 01:34 -33.39495 -70.80068 1568 ft 15 kts 137°
2026-05-05 01:35 -33.39600 -70.80041 1568 ft 17 kts 177°
2026-05-05 01:35 -33.39732 -70.80032 1568 ft 20 kts 176°
2026-05-05 01:35 -33.39866 -70.80023 1568 ft 20 kts 178°
2026-05-05 01:35 -33.40012 -70.80014 1568 ft 19 kts 177°
2026-05-05 01:36 -33.40127 -70.80006 1568 ft 10 kts 175°
2026-05-05 01:36 -33.40163 -70.79949 1568 ft 11 kts 97°
2026-05-05 01:36 -33.40164 -70.79866 1568 ft 7 kts 87°
2026-05-05 01:36 -33.40160 -70.79791 1568 ft 11 kts 87°
2026-05-05 01:37 -33.40158 -70.79719 1568 ft 6 kts 86°
2026-05-05 01:37 -33.40130 -70.79697 1568 ft 6 kts 352°
2026-05-05 01:37 -33.40089 -70.79701 1568 ft 5 kts 358°
2026-05-05 01:37 -33.40075 -70.79702 1568 ft 0 kts 357°